Regional Weather Roundup
Issued by NWS

Home | Current Version | Previous Version | Text Only | Print | Product List | Glossary Off
Versions: 1 2 3 4 5 6 7 8 9 10 11 12 13 14 15 16 17 18 19 20 21 22 23 24 25 26 27 28 29 30 31 32 33 34 35 36 37 38 39 40 41 42 43 44 45 46 47 48 49 50

000
ASUS43 KIND 181909
RWRIN

WEATHER ROUNDUP FOR INDIANA
NATIONAL WEATHER SERVICE INDIANAPOLIS IN
300 PM EDT FRI AUG 18 2017

NOTE: "FAIR" INDICATES FEW OR NO CLOUDS BELOW 12,000 FEET WITH NO
SIGNIFICANT WEATHER AND/OR OBSTRUCTIONS TO VISIBILITY.

* - STATION DOES NOT REPORT WEATHER SUCH AS PRECIPITATION OR FOG.

+ - STATION NOT QUALITY CONTROLLED BY THE NATIONAL WEATHER SERVICE.
    USE DATA WITH CAUTION...ESPECIALLY DEWPOINT AND RELATIVE
    HUMIDITY OBSERVATIONS.

INZ001>003-010>013-019-020-182000-
NORTHWEST INDIANA

CITY           SKY/WX    TMP DP  RH WIND       PRES   REMARKS
GARY /AIRPORT/ PTSUNNY   79  57  47 W14       29.88S
KNOX *+        MOSUNNY   77  63  61 W10G16    29.88S
LA PORTE +     CLOUDY    77  63  62 NW7       29.88S
MICHIGAN CITY+ MOSUNNY   75  63  64 NW5       29.88S
MONTICELLO +   MOSUNNY   80  61  52 W10G17    29.89F
RENSSELAER +   MOSUNNY   77  59  53 SW12      29.90S
VALPARAISO     MOSUNNY   80  62  54 W12       29.88S

$$

LMZ046-743>745-182000-
SOUTHERN LAKE MICHIGAN

STATION/POSITION TIME  TEMP    WIND        PRES    WAVE
                       AIR SEA DIR/SP/G            HT
                 (UTC) (F)     (DEG/KT/KT) (MB)    (FT)
BURNS HARBOR     1840   71      20/  4/  5 1012.2S
MICHIGAN CITY    1840   72     300/  6/  8   N/A
5NW MICH CITY    1900   71 74  310/  6/  8   N/A     3

$$

INZ004-005-014>016-021>024-182000-
NORTH CENTRAL INDIANA

CITY           SKY/WX    TMP DP  RH WIND       PRES   REMARKS
ELKHART        PTSUNNY   77  63  61 W14       29.87S
GOSHEN         CLOUDY    76  61  59 W13       29.87S
LOGANSPORT +   PTSUNNY   79  63  57 W12G22    29.91R
PERU/GRISSOM   MOSUNNY   79  64  60 W15G22    29.89S
ROCHESTER +    MOSUNNY   81  61  50 W12G18    29.89S
SOUTH BEND     MOSUNNY   75  64  68 W14       29.87F
WARSAW +       PTSUNNY   77  63  61 W16       29.88S

$$

INZ006>009-017-018-025>027-182000-
NORTHEAST INDIANA

CITY           SKY/WX    TMP DP  RH WIND       PRES   REMARKS
AUBURN +       PTSUNNY   77  63  61 W12G17    29.88R
FORT WAYNE     PTSUNNY   77  62  59 W18       29.88S
HUNTINGTON +   PTSUNNY   78  63  60 W7G18     29.88F
KENDALLVILLE + PTSUNNY   75  64  67 W8        29.88S

$$

INZ028-029-035-036-043>045-051>053-182000-
WEST CENTRAL INDIANA

CITY           SKY/WX    TMP DP  RH WIND       PRES   REMARKS
GREENCASTLE +  MOSUNNY   81  63  54 W5        29.94S
LAFAYETTE      MOSUNNY   80  64  58 W13       29.89F
TERRE HAUTE    SUNNY     83  62  49 NW8       29.93F

$$

INZ030>032-037>040-046>048-054>057-064-065-182000-
CENTRAL INDIANA

CITY           SKY/WX    TMP DP  RH WIND       PRES   REMARKS
CP ATTERBURY + MOSUNNY   82  63  51 W13       29.93S
COLUMBUS       PTSUNNY   81  59  47 W9        29.93F
FRANKFORT +    CLOUDY    82  67  59 W13       29.94S
GREENWOOD *+   PTSUNNY   81  62  50 W13G18    29.94R
INDIANAPOLIS   PTSUNNY   84  63  49 W16G24    29.92S
-EAGLE CREEK   MOSUNNY   82  62  50 W12G20    29.92R
KOKOMO +       PTSUNNY   79  65  62 W15       29.91S
MARION +       PTSUNNY   77  64  65 W13G18    29.91S
MT COMFORT *+  MOSUNNY   81  63  54 W10G18    29.92F
SHELBYVILLE    MOSUNNY   83  63  50 W13G21    29.92S
ZIONSVILLE +   PTSUNNY   79  64  60 W13G18    29.93S

$$

INZ033-034-041-042-049-050-058-059-182000-
EAST CENTRAL INDIANA

CITY           SKY/WX    TMP DP  RH WIND       PRES   REMARKS
MUNCIE         MOSUNNY   81  64  56 W12G18    29.90F
RICHMOND +     MOSUNNY   79  64  61 W9G16     29.93F

$$

INZ060-061-067>069-081>083-085>088-182000-
SOUTHWEST INDIANA

CITY           SKY/WX    TMP DP  RH WIND       PRES   REMARKS
EVANSVILLE     MOSUNNY   85  63  47 VRB6      29.96F
HUNTINGBURG +  MOSUNNY   84  66  54 W13       29.96F
WASHINGTON +   MOSUNNY   85  61  45 MISG      29.95S

$$

INZ062-063-066-070>080-084-089>092-182000-
SOUTH CENTRAL AND SOUTHEAST INDIANA

CITY           SKY/WX    TMP DP  RH WIND       PRES   REMARKS
BEDFORD +      MOSUNNY   82  61  47 W8        29.94S
BLOOMINGTON    PTSUNNY   84  64  50 W9G18     29.94S
MADISON *+     MOSUNNY   84  61  45 W7        29.95F
NORTH VERNON + MOSUNNY   81  63  54 W9        29.94F
SEYMOUR +      MOSUNNY   84  63  48 W12       29.93F

$$





USA.gov is the U.S. government's official web portal to all federal, state and local government web resources and services.